| time (UTC) | temp F | wind direction | speed knots | gust knots | rain 1hr in | rain 24hr in | rain mn in | humidity % | barometer mb |
| 20260502211315 | 67 | 218 | 2.6 | 8.7 | 0.00 | 0.00 | 0.00 | 30 | 1017.0 |
| 20260502210815 | 67 | 201 | 3.5 | 13.0 | 0.00 | 0.00 | 0.00 | 28 | 1017.1 |
| 20260502210313 | 67 | 250 | 5.2 | 13.0 | 0.00 | 0.00 | 0.00 | 30 | 1017.2 |
| 20260502205814 | 68 | 216 | 7.8 | 12.2 | 0.00 | 0.00 | 0.00 | 31 | 1017.2 |
| 20260502205314 | 68 | 225 | 3.5 | 7.8 | 0.00 | 0.00 | 0.00 | 31 | 1017.4 |
| 20260502204813 | 68 | 245 | 0.9 | 7.0 | 0.00 | 0.00 | 0.00 | 32 | 1017.5 |
| 20260502204313 | 67 | 350 | 3.5 | 12.2 | 0.00 | 0.00 | 0.00 | 32 | 1017.5 |
| 20260502203813 | 67 | 229 | 5.2 | 12.2 | 0.00 | 0.00 | 0.00 | 32 | 1017.6 |
| 20260502203314 | 67 | 219 | 5.2 | 12.2 | 0.00 | 0.00 | 0.00 | 31 | 1017.7 |
| 20260502202811 | 67 | 254 | 6.1 | 12.2 | 0.00 | 0.00 | 0.00 | 33 | 1017.8 |
| 20260502202312 | 66 | 275 | 5.2 | 11.3 | 0.00 | 0.00 | 0.00 | 31 | 1017.8 |
| 20260502201811 | 66 | 137 | 1.7 | 8.7 | 0.00 | 0.00 | 0.00 | 31 | 1017.9 |
| 20260502200810 | 68 | 221 | 4.3 | 9.6 | 0.00 | 0.00 | 0.00 | 31 | 1018.1 |
| 20260502200309 | 68 | 244 | 4.3 | 7.0 | 0.00 | 0.00 | 0.00 | 32 | 1018.1 |
| 20260502195810 | 68 | 265 | 2.6 | 6.1 | 0.00 | 0.00 | 0.00 | 33 | 1018.2 |
| 20260502194809 | 67 | 279 | 3.5 | 8.7 | 0.00 | 0.00 | 0.00 | 31 | 1018.5 |
| 20260502194309 | 67 | 284 | 3.5 | 8.7 | 0.00 | 0.00 | 0.00 | 40 | 1018.5 |
| 20260502193807 | 66 | 250 | 2.6 | 8.7 | 0.00 | 0.00 | 0.00 | 38 | 1018.6 |
| 20260502193308 | 66 | 279 | 3.5 | 8.7 | 0.00 | 0.00 | 0.00 | 34 | 1018.8 |
| 20260502192807 | 65 | 221 | 4.3 | 9.6 | 0.00 | 0.00 | 0.00 | 31 | 1018.9 |
| 20260502191808 | 65 | 250 | 6.1 | 11.3 | 0.00 | 0.00 | 0.00 | 37 | 1018.9 |
| 20260502191305 | 65 | 243 | 6.1 | 11.3 | 0.00 | 0.00 | 0.00 | 34 | 1019.0 |
| 20260502190807 | 66 | 230 | 4.3 | 8.7 | 0.00 | 0.00 | 0.00 | 35 | 1019.1 |
| 20260502190305 | 65 | 275 | 3.5 | 8.7 | 0.00 | 0.00 | 0.00 | 38 | 1019.2 |
| 20260502185305 | 65 | 291 | 4.3 | 11.3 | 0.00 | 0.00 | 0.00 | 41 | 1019.2 |
| 20260502184804 | 65 | 254 | 3.5 | 12.2 | 0.00 | 0.00 | 0.00 | 36 | 1019.3 |
| 20260502183803 | 64 | 9 | 3.5 | 12.2 | 0.00 | 0.00 | 0.00 | 37 | 1019.8 |
| 20260502183304 | 64 | 238 | 4.3 | 12.2 | 0.00 | 0.00 | 0.00 | 35 | 1019.8 |
| 20260502182803 | 65 | 236 | 2.6 | 9.6 | 0.00 | 0.00 | 0.00 | 35 | 1020.0 |
| 20260502182304 | 65 | 272 | 4.3 | 13.0 | 0.00 | 0.00 | 0.00 | 40 | 1020.0 |
| 20260502181802 | 65 | 265 | 6.1 | 13.0 | 0.00 | 0.00 | 0.00 | 39 | 1020.1 |
| 20260502181301 | 64 | 286 | 2.6 | 9.6 | 0.00 | 0.00 | 0.00 | 40 | 1020.0 |
| 20260502180801 | 63 | 243 | 1.7 | 7.0 | 0.00 | 0.00 | 0.00 | 39 | 1020.2 |
| 20260502180300 | 63 | 178 | 2.6 | 7.8 | 0.00 | 0.00 | 0.00 | 37 | 1020.2 |
| 20260502170252 | 60 | 257 | 2.6 | 9.6 | 0.00 | 0.00 | 0.00 | 44 | 1020.9 |
| 20260502164251 | 61 | 257 | 4.3 | 10.4 | 0.00 | 0.00 | 0.00 | 39 | 1020.9 |
| 20260502163750 | 61 | 250 | 3.5 | 10.4 | 0.00 | 0.00 | 0.00 | 41 | 1021.1 |
| 20260502163250 | 61 | 236 | 1.7 | 9.6 | 0.00 | 0.00 | 0.00 | 42 | 1021.0 |
| 20260502162750 | 60 | 279 | 2.6 | 7.0 | 0.00 | 0.00 | 0.00 | 42 | 1021.1 |
| 20260502162249 | 60 | 245 | 3.5 | 10.4 | 0.00 | 0.00 | 0.00 | 41 | 1021.2 |
| 20260502161749 | 59 | 291 | 2.6 | 10.4 | 0.00 | 0.00 | 0.00 | 41 | 1021.2 |
| 20260502161249 | 59 | 234 | 4.3 | 11.3 | 0.00 | 0.00 | 0.00 | 38 | 1021.3 |
| 20260502160751 | 60 | 250 | 4.3 | 11.3 | 0.00 | 0.00 | 0.00 | 44 | 1021.4 |
| 20260502152246 | 55 | 294 | 2.6 | 8.7 | 0.00 | 0.00 | 0.00 | 50 | 1021.6 |
| 20260502151746 | 55 | 291 | 2.6 | 6.1 | 0.00 | 0.00 | 0.00 | 49 | 1021.6 |
| 20260502151246 | 55 | 225 | 0.9 | 6.1 | 0.00 | 0.00 | 0.00 | 52 | 1021.6 |
| 20260502150246 | 53 | 208 | 1.7 | 5.2 | 0.00 | 0.00 | 0.00 | 55 | 1021.5 |
| 20260502130727 | 33 | 325 | 0.9 | 1.7 | 0.00 | 0.00 | 0.00 | 90 | 1021.8 |
| 20260502130227 | 32 | 51 | 0.9 | 1.7 | 0.00 | 0.00 | 0.00 | 90 | 1021.8 |
| 20260502123724 | 30 | 238 | 0.0 | 0.9 | 0.00 | 0.00 | 0.00 | 89 | 1021.7 |
| 20260502123226 | 30 | 238 | 0.0 | 0.9 | 0.00 | 0.00 | 0.00 | 89 | 1021.6 |
| 20260502122724 | 30 | 265 | 0.0 | 0.9 | 0.00 | 0.00 | 0.00 | 89 | 1021.5 |
| 20260502122219 | 30 | 51 | 0.0 | 0.9 | 0.00 | 0.00 | 0.00 | 89 | 1021.7 |
| 20260502121720 | 29 | 9 | 0.0 | 0.9 | 0.00 | 0.00 | 0.00 | 89 | 1021.6 |
| 20260502121219 | 29 | 153 | 0.0 | 0.9 | 0.00 | 0.00 | 0.00 | 89 | 1021.6 |
| 20260502120718 | 29 | 126 | 0.9 | 0.9 | 0.00 | 0.00 | 0.00 | 89 | 1021.6 |
| 20260502120218 | 29 | 51 | 0.0 | 0.9 | 0.00 | 0.00 | 0.00 | 89 | 1021.6 |
| 20260502115717 | 29 | 265 | 0.0 | 0.9 | 0.00 | 0.00 | 0.00 | 89 | 1021.5 |
| 20260502115217 | 29 | 111 | 0.0 | 0.9 | 0.00 | 0.00 | 0.00 | 89 | 1021.5 |
| 20260502114717 | 29 | 205 | 0.0 | 1.7 | 0.00 | 0.00 | 0.00 | 88 | 1021.5 |
| 20260502114216 | 29 | 215 | 0.9 | 1.7 | 0.00 | 0.00 | 0.00 | 88 | 1021.5 |
| 20260502113716 | 29 | 137 | 0.0 | 0.9 | 0.00 | 0.00 | 0.00 | 88 | 1021.4 |
| 20260502113216 | 29 | 9 | 0.0 | 0.9 | 0.00 | 0.00 | 0.00 | 88 | 1021.4 |
| 20260502112715 | 29 | 325 | 0.0 | 0.9 | 0.00 | 0.00 | 0.00 | 88 | 1021.5 |
| 20260502111215 | 29 | 34 | 0.0 | 0.9 | 0.00 | 0.00 | 0.00 | 88 | 1021.4 |
| 20260502110214 | 29 | 51 | 0.0 | 0.9 | 0.00 | 0.00 | 0.00 | 88 | 1021.4 |
| 20260502105714 | 29 | 137 | 0.0 | 0.9 | 0.00 | 0.00 | 0.00 | 88 | 1021.4 |
| 20260502104709 | 29 | 221 | 0.0 | 0.9 | 0.00 | 0.00 | 0.00 | 88 | 1021.4 |
| 20260502104207 | 29 | 51 | 0.9 | 0.9 | 0.00 | 0.00 | 0.00 | 87 | 1021.4 |
| 20260502103703 | 29 | 9 | 0.9 | 0.9 | 0.00 | 0.00 | 0.00 | 87 | 1021.4 |
| 20260502103204 | 29 | 51 | 0.0 | 0.9 | 0.00 | 0.00 | 0.00 | 87 | 1021.4 |
| 20260502102203 | 29 | 26 | 0.0 | 0.9 | 0.00 | 0.00 | 0.00 | 87 | 1021.3 |
| 20260502101703 | 29 | 9 | 0.0 | 0.9 | 0.00 | 0.00 | 0.00 | 87 | 1021.3 |
| 20260502100702 | 30 | 325 | 0.0 | 0.9 | 0.00 | 0.00 | 0.00 | 87 | 1021.3 |
| 20260502100202 | 30 | 26 | 0.0 | 0.9 | 0.00 | 0.00 | 0.00 | 87 | 1021.2 |
| 20260502091150 | 31 | 93 | 0.0 | 0.9 | 0.00 | 0.00 | 0.00 | 86 | 1021.2 |
| 20260502090643 | 31 | 93 | 0.0 | 0.9 | 0.00 | 0.00 | 0.00 | 86 | 1021.0 |
| 20260502090143 | 31 | 34 | 0.0 | 0.9 | 0.00 | 0.00 | 0.00 | 86 | 1021.0 |
| 20260502071059 | 33 | 309 | 0.0 | 0.9 | 0.00 | 0.00 | 0.00 | 82 | 1021.2 |
| 20260502070559 | 33 | 51 | 0.0 | 0.9 | 0.00 | 0.00 | 0.00 | 82 | 1021.1 |
| 20260502070059 | 33 | 325 | 0.0 | 0.9 | 0.00 | 0.00 | 0.00 | 82 | 1021.1 |
| 20260502065057 | 34 | 9 | 0.0 | 0.9 | 0.00 | 0.00 | 0.00 | 82 | 1021.0 |
| 20260502063557 | 34 | 265 | 0.0 | 0.9 | 0.00 | 0.00 | 0.00 | 81 | 1021.1 |
| 20260502063057 | 34 | 126 | 0.9 | 0.9 | 0.00 | 0.00 | 0.00 | 81 | 1021.1 |
| 20260502062556 | 34 | 137 | 0.9 | 0.9 | 0.00 | 0.00 | 0.00 | 80 | 1021.1 |
| 20260502062056 | 34 | 51 | 0.0 | 0.9 | 0.00 | 0.00 | 0.00 | 80 | 1021.0 |
| 20260502061556 | 34 | 93 | 0.0 | 0.9 | 0.00 | 0.00 | 0.00 | 79 | 1021.0 |
| 20260502060555 | 35 | 137 | 0.0 | 1.7 | 0.00 | 0.00 | 0.00 | 79 | 1020.9 |
| 20260502060055 | 35 | 51 | 0.0 | 1.7 | 0.00 | 0.00 | 0.00 | 79 | 1020.9 |
| 20260502054556 | 36 | 309 | 0.0 | 0.9 | 0.00 | 0.00 | 0.00 | 78 | 1020.8 |
| 20260502054054 | 36 | 137 | 0.0 | 0.9 | 0.00 | 0.00 | 0.00 | 78 | 1020.8 |
| 20260502053555 | 36 | 162 | 0.0 | 0.9 | 0.00 | 0.00 | 0.00 | 78 | 1020.7 |
| 20260502053049 | 36 | 137 | 0.0 | 0.9 | 0.00 | 0.00 | 0.00 | 77 | 1020.7 |
| 20260502052544 | 36 | 309 | 0.0 | 0.9 | 0.00 | 0.00 | 0.00 | 77 | 1020.8 |
| 20260502052043 | 36 | 51 | 0.9 | 0.9 | 0.00 | 0.00 | 0.00 | 76 | 1020.8 |
| 20260502051544 | 37 | 162 | 0.0 | 0.9 | 0.00 | 0.00 | 0.00 | 76 | 1020.7 |
| 20260502050543 | 37 | 137 | 0.0 | 0.9 | 0.00 | 0.00 | 0.00 | 75 | 1020.6 |
| 20260502050043 | 37 | 137 | 0.0 | 0.9 | 0.00 | 0.00 | 0.00 | 75 | 1020.6 |
| 20260502045042 | 38 | 9 | 0.0 | 0.9 | 0.00 | 0.00 | 0.00 | 74 | 1020.5 |
| 20260502044541 | 38 | 137 | 0.0 | 0.9 | 0.00 | 0.00 | 0.00 | 73 | 1020.6 |
| 20260502043536 | 38 | 153 | 0.0 | 0.9 | 0.00 | 0.00 | 0.00 | 71 | 1020.5 |
| 20260502043036 | 39 | 153 | 0.0 | 0.9 | 0.00 | 0.00 | 0.00 | 70 | 1020.4 |
| 20260502042536 | 39 | 162 | 0.9 | 0.9 | 0.00 | 0.00 | 0.00 | 70 | 1020.3 |
| 20260502041536 | 39 | 162 | 0.0 | 0.9 | 0.00 | 0.00 | 0.00 | 68 | 1020.4 |
| 20260502041035 | 40 | 137 | 0.0 | 0.9 | 0.00 | 0.00 | 0.00 | 67 | 1020.4 |
| 20260502040030 | 40 | 93 | 0.0 | 0.9 | 0.00 | 0.00 | 0.00 | 67 | 1020.4 |
| 20260502035519 | 41 | 137 | 0.9 | 0.9 | 0.00 | 0.00 | 0.00 | 66 | 1020.4 |
| 20260502035019 | 41 | 265 | 0.0 | 1.7 | 0.00 | 0.00 | 0.00 | 66 | 1020.3 |
| 20260502034513 | 42 | 265 | 0.0 | 1.7 | 0.00 | 0.00 | 0.00 | 65 | 1020.4 |
| 20260502034014 | 42 | 287 | 0.0 | 1.7 | 0.00 | 0.00 | 0.00 | 64 | 1020.3 |
| 20260502033513 | 42 | 291 | 0.0 | 0.9 | 0.00 | 0.00 | 0.00 | 63 | 1020.3 |
| 20260502033013 | 43 | 325 | 0.0 | 1.7 | 0.00 | 0.00 | 0.00 | 63 | 1020.4 |
| 20260502032513 | 44 | 309 | 0.9 | 1.7 | 0.00 | 0.00 | 0.00 | 62 | 1020.3 |
| 20260502032012 | 44 | 51 | 0.0 | 1.7 | 0.00 | 0.00 | 0.00 | 60 | 1020.3 |
| 20260502031512 | 45 | 291 | 0.0 | 0.9 | 0.00 | 0.00 | 0.00 | 57 | 1020.2 |
| 20260502031001 | 46 | 205 | 0.0 | 0.9 | 0.00 | 0.00 | 0.00 | 52 | 1020.2 |
| 20260502030501 | 46 | 212 | 0.9 | 0.9 | 0.00 | 0.00 | 0.00 | 50 | 1020.2 |
| 20260502030002 | 47 | 238 | 0.0 | 0.9 | 0.00 | 0.00 | 0.00 | 48 | 1020.1 |
| 20260502025501 | 47 | 51 | 0.0 | 1.7 | 0.00 | 0.00 | 0.00 | 47 | 1020.1 |
| 20260502025001 | 48 | 119 | 0.9 | 1.7 | 0.00 | 0.00 | 0.00 | 46 | 1020.0 |
| 20260502024451 | 48 | 342 | 0.9 | 1.7 | 0.00 | 0.00 | 0.00 | 44 | 1019.9 |
| 20260502022949 | 48 | 338 | 0.9 | 1.7 | 0.00 | 0.00 | 0.00 | 44 | 1019.8 |
| 20260502022450 | 48 | 19 | 0.9 | 2.6 | 0.00 | 0.00 | 0.00 | 44 | 1019.7 |
| 20260502021949 | 48 | 44 | 1.7 | 2.6 | 0.00 | 0.00 | 0.00 | 44 | 1019.7 |
| 20260502021449 | 49 | 334 | 0.9 | 2.6 | 0.00 | 0.00 | 0.00 | 44 | 1019.6 |
| 20260502020950 | 49 | 9 | 0.9 | 2.6 | 0.00 | 0.00 | 0.00 | 44 | 1019.6 |
| 20260502020448 | 49 | 30 | 1.7 | 2.6 | 0.00 | 0.00 | 0.00 | 43 | 1019.6 |
| 20260502014447 | 50 | 325 | 1.7 | 3.5 | 0.00 | 0.00 | 0.00 | 42 | 1019.3 |
| 20260502013947 | 50 | 26 | 1.7 | 3.5 | 0.00 | 0.00 | 0.00 | 42 | 1019.2 |
| 20260502012946 | 50 | 330 | 1.7 | 6.1 | 0.00 | 0.00 | 0.00 | 42 | 1019.1 |
| 20260502011946 | 51 | 19 | 1.7 | 5.2 | 0.00 | 0.00 | 0.00 | 43 | 1019.0 |
| 20260502011445 | 51 | 43 | 1.7 | 5.2 | 0.00 | 0.00 | 0.00 | 44 | 1018.9 |
| 20260502010445 | 51 | 15 | 2.6 | 8.7 | 0.00 | 0.00 | 0.00 | 43 | 1018.8 |
| 20260502005445 | 52 | 347 | 3.5 | 10.4 | 0.00 | 0.00 | 0.00 | 43 | 1018.8 |
| 20260502004943 | 53 | 347 | 4.3 | 10.4 | 0.00 | 0.00 | 0.00 | 41 | 1018.8 |
| 20260502004443 | 53 | 329 | 4.3 | 9.6 | 0.00 | 0.00 | 0.00 | 41 | 1018.7 |
| 20260502003942 | 53 | 9 | 5.2 | 10.4 | 0.00 | 0.00 | 0.00 | 42 | 1018.6 |
| 20260502003442 | 53 | 24 | 4.3 | 10.4 | 0.00 | 0.00 | 0.00 | 41 | 1018.5 |
| 20260502002942 | 54 | 19 | 3.5 | 10.4 | 0.00 | 0.00 | 0.00 | 40 | 1018.5 |
| 20260502002443 | 54 | 344 | 6.1 | 10.4 | 0.00 | 0.00 | 0.00 | 39 | 1018.5 |
| 20260502001942 | 54 | 309 | 2.6 | 10.4 | 0.00 | 0.00 | 0.00 | 40 | 1018.4 |
| 20260502001442 | 55 | 324 | 4.3 | 12.2 | 0.00 | 0.00 | 0.00 | 38 | 1018.4 |
| 20260502000941 | 55 | 341 | 5.2 | 13.9 | 0.00 | 0.00 | 0.00 | 38 | 1018.3 |
| 20260502000441 | 56 | 310 | 5.2 | 13.9 | 0.00 | 0.00 | 0.00 | 38 | 1018.5 |
| 20260501235942 | 56 | 9 | 7.8 | 13.9 | 0.00 | 0.00 | 0.00 | 37 | 1018.4 |
| 20260501234940 | 56 | 316 | 3.5 | 11.3 | 0.00 | 0.00 | 0.00 | 38 | 1018.5 |
| 20260501233439 | 57 | 305 | 7.0 | 13.9 | 0.00 | 0.00 | 0.00 | 35 | 1018.4 |
| 20260501232440 | 58 | 9 | 4.3 | 14.8 | 0.00 | 0.00 | 0.00 | 37 | 1018.4 |
| 20260501231939 | 58 | 335 | 7.0 | 14.8 | 0.00 | 0.00 | 0.00 | 36 | 1018.4 |
| 20260501231438 | 58 | 15 | 6.1 | 14.8 | 0.00 | 0.00 | 0.00 | 37 | 1018.3 |
| 20260501230937 | 59 | 350 | 5.2 | 13.9 | 0.00 | 0.00 | 0.00 | 37 | 1018.4 |
| 20260501230437 | 59 | 334 | 5.2 | 12.2 | 0.00 | 0.00 | 0.00 | 37 | 1018.3 |
| 20260501225936 | 59 | 344 | 7.0 | 12.2 | 0.00 | 0.00 | 0.00 | 33 | 1018.2 |
| 20260501225436 | 59 | 340 | 3.5 | 13.0 | 0.00 | 0.00 | 0.00 | 38 | 1018.4 |
| 20260501224935 | 59 | 303 | 4.3 | 13.9 | 0.00 | 0.00 | 0.00 | 36 | 1018.3 |
| 20260501222928 | 60 | 324 | 4.3 | 13.9 | 0.00 | 0.00 | 0.00 | 36 | 1018.2 |
| 20260501222429 | 60 | 332 | 7.8 | 13.9 | 0.00 | 0.00 | 0.00 | 36 | 1018.3 |
| 20260501221927 | 60 | 325 | 4.3 | 11.3 | 0.00 | 0.00 | 0.00 | 37 | 1018.1 |
| 20260501221427 | 59 | 348 | 3.5 | 11.3 | 0.00 | 0.00 | 0.00 | 36 | 1018.1 |
| 20260501220927 | 60 | 11 | 5.2 | 11.3 | 0.00 | 0.00 | 0.00 | 36 | 1018.1 |
| 20260501220424 | 60 | 26 | 6.1 | 11.3 | 0.00 | 0.00 | 0.00 | 36 | 1018.2 |
| 20260501215923 | 59 | 336 | 5.2 | 11.3 | 0.00 | 0.00 | 0.00 | 38 | 1018.2 |
| 20260501215422 | 59 | 342 | 5.2 | 12.2 | 0.00 | 0.00 | 0.00 | 34 | 1018.1 |
| 20260501214919 | 60 | 337 | 7.8 | 12.2 | 0.00 | 0.00 | 0.00 | 34 | 1018.1 |
| 20260501214416 | 60 | 38 | 4.3 | 11.3 | 0.00 | 0.00 | 0.00 | 37 | 1018.2 |
| 20260501213916 | 61 | 337 | 6.1 | 13.9 | 0.00 | 0.00 | 0.00 | 37 | 1018.2 |
| 20260501212913 | 61 | 350 | 3.5 | 13.9 | 0.00 | 0.00 | 0.00 | 37 | 1018.2 |
| 20260501212414 | 61 | 16 | 2.6 | 13.9 | 0.00 | 0.00 | 0.00 | 36 | 1018.3 |